Location: ??????
(30.0081°N, 31.2109°E)
Time: 09:14:33
(UTC+00:00)

Cosmos 2360 Rocket - Pass Details

Date: 03 March 2021
Orbit: 832 x 846 km, 71.0° (Epoch: 16 April)

Event Time Altitude Azimuth Distance (km) Brightness Sun altitude
Rises 16:50:27 0° 205° (SSW) 3,368 5.7 -12.7°
Reaches altitude 10° 16:52:53 10° 208° (SSW) 2,439 5.0 -13.2°
Maximum altitude 16:58:27 68° 291° (WNW) 902 2.6 -14.4°
Drops below altitude 10° 17:04:04 10° 14° (NNE) 2,460 4.5 -15.6°
Sets 17:06:32 0° 17° (NNE) 3,399 5.2 -16.1°
